Weather History for KBMQ - February, 2013

Change the Weather History Date:

Thursday, February 28, 2013

  Actual Average Record
Temperature  
Mean Temperature 50 °F -  
Max Temperature 61 °F 61 °F 82 °F (2014)
Min Temperature 39 °F 41 °F 26 °F (2015)
Degree Days  
Heating Degree Days 15    
Moisture  
Dew Point 23 °F    
Average Humidity 40    
Maximum Humidity 62    
Minimum Humidity 19    
Precipitation  
Precipitation 0.00 in - - ()
Sea Level Pressure  
Sea Level Pressure 30.26 in    
Wind  
Wind Speed 7 mph (North)    
Max Wind Speed 14 mph    
Max Gust Speed 23 mph    
Visibility 10 miles    
Events      
Averages and records for this station are not official NWS values.
T = Trace of Precipitation, MM = Missing Value Source: NWS Daily Summary

Daily Weather History Graph

Daily Weather History Graph

Search for Another Location

Airport or City:

Trip Planner

Search our weather history database for the weather conditions in past years. The results will help you decide how hot, cold, wet, or windy it might be!

Date:

Astronomy

Feb. 28, 2013 Rise Set
Actual Time 7:00 AM CST 6:31 PM CST
Civil Twilight 6:35 AM CST 6:55 PM CST
Nautical Twilight 6:07 AM CST 7:23 PM CST
Astronomical Twilight 5:40 AM CST 7:51 PM CST
Moon 9:41 PM CST (2/28) 8:26 AM CST (2/28)
Length of Visible Light 12h 19m
Length of Day
11h 30m
Waning Gibbous, 90% of the Moon is Illuminated
Feb 28
Waning Gibbous
Mar 4
Last Quarter
Mar 11
New
Mar 19
First Quarter
Mar 27
Full

Hourly Weather History & Observations

Time (CST) Temp. Windchill Dew Point Humidity Pressure Visibility Wind Dir Wind Speed Gust Speed Precip Events Conditions
12:53 AM 44.1 °F 40.8 °F 25.0 °F 47% 30.25 in 10.0 mi North 5.8 mph - N/A   Clear
1:53 AM 43.0 °F 39.5 °F 27.0 °F 53% 30.25 in 10.0 mi North 5.8 mph - N/A   Clear
2:53 AM 41.0 °F 38.0 °F 27.0 °F 57% 30.25 in 10.0 mi NNW 4.6 mph - N/A   Clear
3:53 AM 39.9 °F 37.8 °F 27.0 °F 60% 30.25 in 10.0 mi NNW 3.5 mph - N/A   Clear
4:53 AM 39.9 °F 37.8 °F 27.0 °F 60% 30.26 in 10.0 mi North 3.5 mph - N/A   Clear
5:53 AM 39.9 °F 34.5 °F 27.0 °F 60% 30.28 in 10.0 mi North 8.1 mph - N/A   Clear
6:53 AM 39.0 °F 34.0 °F 27.0 °F 62% 30.29 in 10.0 mi North 6.9 mph - N/A   Clear
8:53 AM 43.0 °F 37.7 °F 25.0 °F 49% 30.34 in 10.0 mi North 9.2 mph - N/A   Clear
9:53 AM 48.9 °F - 24.1 °F 38% 30.34 in 10.0 mi North 9.2 mph - N/A   Clear
10:53 AM 53.1 °F - 21.9 °F 30% 30.33 in 10.0 mi North 13.8 mph 23.0 mph N/A   Clear
11:53 AM 57.0 °F - 21.0 °F 25% 30.30 in 10.0 mi North 11.5 mph 18.4 mph N/A   Clear
12:53 PM 57.9 °F - 19.9 °F 23% 30.27 in 10.0 mi North 13.8 mph 18.4 mph N/A   Clear
1:53 PM 59.0 °F - 18.0 °F 20% 30.24 in 10.0 mi North 12.7 mph - N/A   Clear
3:53 PM 61.0 °F - 19.9 °F 21% 30.21 in 10.0 mi North 13.8 mph 20.7 mph N/A   Clear
4:53 PM 61.0 °F - 18.0 °F 19% 30.20 in 10.0 mi North 8.1 mph 17.3 mph N/A   Clear
5:53 PM 59.0 °F - 18.0 °F 20% 30.22 in 10.0 mi North 8.1 mph - N/A   Clear
6:53 PM 54.0 °F - 19.0 °F 25% 30.23 in 10.0 mi North 4.6 mph - N/A   Clear
7:53 PM 50.0 °F - 19.9 °F 31% 30.25 in 10.0 mi North 4.6 mph - N/A   Clear
8:53 PM 45.0 °F 43.5 °F 21.0 °F 39% 30.25 in 10.0 mi North 3.5 mph - N/A   Clear
9:53 PM 43.0 °F 40.3 °F 21.9 °F 43% 30.26 in 10.0 mi North 4.6 mph - N/A   Clear
10:53 PM 42.1 °F - 21.9 °F 45% 30.26 in 10.0 mi Calm Calm - N/A   Clear
11:53 PM 39.9 °F - 21.9 °F 49% 30.25 in 10.0 mi Calm Calm - N/A   Clear